カタログに戻る

QIANFAN-193

運用中通信PO
NORAD 69411·PAYLOAD·🇨🇳 China

打ち上げ Jun 5, 2026 から Wenchang Space Launch Site

Loading…

次のパス (今後24時間)

TLE

最新Source: Space-Track

元期: Sep 14, 2026, 13:54 UTC

1 69411U 26125L   26257.57931451  .00000012  00000-0  15079-6 0  9995
2 69411  88.9866 270.9005 0001838 102.8308 257.3048 13.51027388 14027

AllMySatでQIANFAN-193をリアルタイム追跡

Download on the App Store